Flag for Moldova Weather past 2 weeks in Chisinau, Moldova

Now
52 °F

Clear.


Feels Like: 52 °F
Forecast: 50 / 64 °F
Wind: 2 mph from Southwest

Location: Chisinau International Airport

Current Time: Oct 21, 2014 at 2:31:07 AM

Latest Report: Oct 21, 2014 at 2:00 AM


Visibility: 10 mi

Pressure: 29.89 "Hg

Humidity: 67%

Dew point: 41 °F

Location of ChisinauLocation

Historic Weather in Chisinau — Graph

°F

Chisinau temperature yesterday

Maximum temperature yesterday: 70 °F (at 4:00 PM)
Minimum temperature yesterday: 41 °F (at 12:00 AM)
Average temperature yesterday: 53 °F

Past Weeks' High & Low Weather Summary

 TemperatureHumidityPressure
High77 °F (Oct 15, 3:00 PM)93% (Oct 10, 7:30 AM)30.42 "Hg (Oct 10, 7:30 AM)
Low30 °F (Oct 19, 4:00 AM)20% (Oct 12, 4:00 PM)29.68 "Hg (Oct 16, 5:00 AM)
Average54 °F61%30.11 "Hg
* Reported Oct 6 1:00 AM — Oct 21 1:30 AM, Chisinau, Weather by CustomWeather, © 2014

Note: Actual official high and low records may vary slightly from our data, if they occured in-between our weather recording intervals... More about our weather records

Advertising

Chisinau weather history for previous 24 hours

 ConditionsComfort  
Time TempWeatherWind HumidityBarometerVisibility
1:30 AM
Oct 21
50 °FClear.1 mph71%29.89 "Hg10 mi
1:00 AM52 °FClear.1 mph67%29.89 "Hg10 mi
12:30 AM54 °FClear.2 mph67%29.89 "Hg10 mi
12:00 AM55 °FClear.3 mph63%29.89 "Hg10 mi
11:30 PM
Oct 20
54 °FClear.5 mph63%29.89 "Hg10 mi
11:00 PM59 °FClear.6 mph55%29.89 "Hg10 mi
10:30 PM59 °FClear.2 mph55%29.89 "Hg10 mi
10:00 PM59 °FClear.3 mph55%29.89 "Hg10 mi
9:30 PM61 °FClear.5 mph52%29.89 "Hg10 mi
9:00 PM59 °FClear.1 mph55%29.89 "Hg10 mi
8:30 PM59 °FClear.1 mph55%29.89 "Hg10 mi
8:00 PM61 °FClear.7 mph52%29.89 "Hg10 mi
7:30 PM61 °FClear.7 mph48%29.89 "Hg10 mi
7:00 PM63 °FClear.8 mph45%29.89 "Hg4 mi
6:30 PM63 °FSunny.6 mph45%29.89 "Hg10 mi
6:00 PM64 °FSunny.8 mph43%29.89 "Hg10 mi
5:30 PM66 °FSunny.9 mph40%29.89 "Hg10 mi
5:00 PM68 °FSunny.9 mph38%29.89 "Hg10 mi
4:30 PM68 °FSunny.12 mph35%29.89 "Hg10 mi
4:00 PM70 °FSunny.10 mph35%29.92 "Hg10 mi
3:30 PM68 °FPassing clouds.10 mph35%29.92 "HgN/A
3:00 PM66 °FPassing clouds.9 mph40%29.92 "HgN/A
2:30 PM66 °FPassing clouds.9 mph40%29.92 "HgN/A
2:00 PM64 °FSunny.10 mph43%29.95 "Hg10 mi
1:30 PM63 °FSunny.9 mph45%29.98 "Hg10 mi
1:00 PM61 °FPassing clouds.8 mph48%29.98 "HgN/A
12:30 PM59 °FPassing clouds.9 mph51%30.01 "HgN/A
12:00 PM57 °FSunny.8 mph55%30.01 "Hg10 mi
11:30 AM54 °FSunny.9 mph58%30.01 "Hg10 mi
11:00 AM54 °FPassing clouds.7 mph58%30.04 "HgN/A
10:30 AM50 °FPassing clouds.7 mph67%30.04 "HgN/A
10:00 AM50 °FSunny.8 mph67%30.04 "Hg10 mi
9:30 AM46 °FPassing clouds.8 mph71%30.04 "HgN/A
9:00 AM45 °FPassing clouds.6 mph76%30.07 "HgN/A
8:30 AM41 °FPassing clouds.3 mph81%30.07 "HgN/A
8:00 AM41 °FClear.3 mph81%30.07 "Hg10 mi
6:30 AM41 °FClear.6 mph81%30.09 "Hg10 mi
6:00 AM41 °FClear.6 mph81%30.09 "Hg10 mi
5:30 AM41 °FPassing clouds.5 mph81%30.09 "HgN/A
5:00 AM41 °FClear.5 mph76%30.12 "Hg10 mi
4:30 AM41 °FClear.8 mph76%30.12 "Hg10 mi
4:00 AM43 °FPassing clouds.7 mph71%30.12 "HgN/A
3:30 AM43 °FPassing clouds.7 mph66%30.15 "HgN/A
3:00 AM41 °FPassing clouds.8 mph66%30.18 "HgN/A
2:30 AM41 °FClear.8 mph61%30.18 "Hg10 mi
2:00 AM41 °FClear.5 mph61%30.21 "Hg10 mi
Weather by CustomWeather, © 2014

See weather overviewHow to use our weather pages